This is the latest recevied weather packets stored in our database for station/object TA3KB-13. If no packets are shown the sender has not sent any weather packets the latest 10 day(s).
| Time | Temp. | Humidity | Pressure | Rain* | Wind** | Luminosity | Snow |
|---|---|---|---|---|---|---|---|
| 1778307209 | 23.33° C | 36% | 458.5 hPa | 0 mm | - | - | - |
| 1778306759 | 23.33° C | 40% | 458.5 hPa | 0 mm | - | - | - |
| 1778306308 | 22.22° C | 40% | 458.5 hPa | 0 mm | - | - | - |
| 1778305859 | 21.67° C | 39% | 458.5 hPa | 0 mm | - | - | - |
| 1778305408 | 21.67° C | 39% | 458.5 hPa | 0 mm | - | - | - |
| 1778304958 | 21.67° C | 40% | 458.5 hPa | 0 mm | - | - | - |
| 1778304508 | 22.22° C | 40% | 458.5 hPa | 0 mm | - | - | - |
| 1778304058 | 22.22° C | 40% | 458.5 hPa | 0 mm | - | - | - |
| 1778303608 | 22.22° C | 42% | 458.5 hPa | 0 mm | - | - | - |
| 1778303158 | 21.11° C | 43% | 458.4 hPa | 0 mm | - | - | - |
| 1778302708 | 20.56° C | 41% | 458.5 hPa | 0 mm | - | - | - |
| 1778302258 | 21.11° C | 41% | 458.5 hPa | 0 mm | - | - | - |
| 1778301808 | 20° C | 43% | 458.5 hPa | 0 mm | - | - | - |
| 1778301358 | 19.44° C | 41% | 458.5 hPa | 0 mm | - | - | - |
| 1778300908 | 18.89° C | 40% | 458.5 hPa | 0 mm | - | - | - |
| 1778300458 | 18.33° C | 40% | 458.5 hPa | 0 mm | - | - | - |
| 1778300008 | 18.33° C | 39% | 458.4 hPa | 0 mm | - | - | - |
| 1778299558 | 18.33° C | 39% | 458.4 hPa | 0 mm | - | - | - |
| 1778299108 | 18.33° C | 39% | 458.5 hPa | 0 mm | - | - | - |
| 1778298658 | 18.33° C | 39% | 458.4 hPa | 0 mm | - | - | - |
| 1778298208 | 18.33° C | 39% | 458.4 hPa | 0 mm | - | - | - |
| 1778297758 | 18.33° C | 39% | 458.5 hPa | 0 mm | - | - | - |
| 1778297307 | 18.33° C | 39% | 458.5 hPa | 0 mm | - | - | - |
| 1778296857 | 18.33° C | 39% | 458.6 hPa | 0 mm | - | - | - |
| 1778296407 | 18.33° C | 39% | 458.5 hPa | 0 mm | - | - | - |
* Rain latest hour (hover to see other rain measurements)
** Current wind speed in m/s (hover to see current wind gust speed)